sat.trackr.live / text

‹ back to catalog

STARLINK-30510

NORAD 57981 · 2023-151T

PAYLOAD ACTIVE UNKNOWN

§ Identity

Operator
Country
US
Launch date
2023-09-30
Launch site
AFETR
Launch vehicle
Mass (kg)
RCS (m²)

Purposes: comms

External: N2YO · Heavens-Above · Gunter

§ Orbital elements

Epoch: 2026-05-24T17:20:32.808480Z

Period
94.27 min
Inclination
43.0014°
Eccentricity
0.0001923
Mean motion
15.27578616 rev/d
Perigee alt
481.7 km
Apogee alt
484.4 km
Semi-major
6,861.2 km
B*
5.3328e-5
RAAN
284.5207°
Arg perigee
260.7747°
Mean anomaly
99.2887°
Rev number
14,718

§ Raw data

STARLINK-305101 57981U 23151T   26144.72260195  .00001205  00000+0  53328-4 0  99932 57981  43.0014 284.5207 0001923 260.7747  99.2887 15.27578616147182

JSON: /api/v1/satellites/57981 · /tle

For live sub-satellite position, see the globe view (requires WebGL).

§ Visibility from observer

Set your observer location to see the next 7 days of passes ≥ 10°. The values pass through the URL so the page stays shareable.

No JS? Fill the form by hand. The geolocation button needs JavaScript.